Погода в Иршаве

Украина / Закарпатская область     48°19′01″N   23°02′14″E
темп.,
°C
ветер,
м/с
пор.,
м/с
влажн.,
%
обл.,
%
осадки,
мм/ч
давл.,
гПа
погр.,
м
16 июня, ср
ср1600:00+15ссв2285100 0.0 101532
03:00+14св228962 0.0 101523
06:00+13св228994 0.0 101620
09:00+19св12695 0.0 1016353
12:00+24ссз12516 0.0 10161426
15:00+26зюз244444 0.0 10151877
18:00+26всв24501 0.0 10141608
21:00+20ссв35711 0.0 101670
17 июня, чт
чт1700:00+17св35803 0.0 101771
03:00+15всв33862 0.0 101739
06:00+14св22884 0.0 101829
09:00+21всв23690 0.0 1019320
12:00+25юв025270 0.0 10181194
15:00+27зюз124932 0.0 10181440
18:00+26с2253100 0.0 1018961
21:00+22с117069 0.0 101813
18 июня, пт
пт1800:00+18всв327824 0.0 101933
03:00+17всв228183 0.0 101931
06:00+16всв228293 0.0 101926
09:00+22всв226868 0.0 1019288
12:00+27юв12552 0.0 1019842
15:00+29зюз22500 0.0 10171167
18:00+28сз335682 0.0 1016787
21:00+23св22730 0.1 101712
19 июня, сб
сб1900:00+19всв32770 0.0 101828
03:00+17всв22830 0.0 101819
06:00+16всв22860 0.0 101824
09:00+22в22700 0.0 1019292
12:00+26юв23580 0.0 1018971
15:00+29ююз13480 0.0 10171573
18:00+29зсз22514 0.0 10151247
21:00+24ссв11740 0.1 101511
20 июня, вс
вс2000:00+19всв22830 0.1 101625
03:00+17св22870 0.2 101721
06:00+16всв22882 0.0 101719
09:00+21в22725 0.0 1017310
12:00+25юв22561 0.0 1016972
15:00+27ююз22470 0.0 10151370
18:00+27зюз114984 0.0 10141300
21:00+23св11692 0.1 101311